When you browse on this site, cookies collect data to enhance your experience and personalize the content and advertising you see.
Visit our Privacy Policy to learn more. By continuing to use the site, you agree to this use of cookies and data.
  • In Schweiz
  • Länderverzeichnis
  • Für 7 Tage
  • Wassertemperatur
  • Satellitenkarten
  • Wetterkarte
  • Widgets
  • user-avatar
    Anmelden

    Stündliche Wetter Zürich

    Heute, 19 Februar, Dienstag

    Zeit Temperatur Niederschläge Wind Luftdruck Luftfeuchtigkeit
    00:00 +5°C° 0 mm 1 m/S 722 mmHg 78%
    01:00 +4°C° 0 mm 2 m/S 722 mmHg 76%
    02:00 +4°C° 0 mm 2 m/S 722 mmHg 78%
    03:00 +4°C° 0 mm 1 m/S 722 mmHg 79%
    04:00 +4°C° 0 mm 1 m/S 722 mmHg 81%
    05:00 +3°C° 0 mm 1 m/S 722 mmHg 81%
    06:00 +3°C° 0 mm 1 m/S 722 mmHg 81%
    07:00 +3°C° 0 mm 1 m/S 722 mmHg 83%
    08:00 +5°C° 0 mm 1 m/S 722 mmHg 78%
    09:00 +6°C° 0 mm 1 m/S 722 mmHg 74%
    10:00 +8°C° 0 mm 1 m/S 723 mmHg 69%
    11:00 +9°C° 0 mm 1 m/S 722 mmHg 66%
    12:00 +11°C° 0 mm 1 m/S 722 mmHg 64%
    13:00 +12°C° 0 mm 2 m/S 722 mmHg 61%
    14:00 +12°C° 0 mm 2 m/S 722 mmHg 63%
    15:00 +12°C° 0 mm 1 m/S 722 mmHg 64%
    16:00 +12°C° 0 mm 1 m/S 722 mmHg 66%
    17:00 +10°C° 0 mm 1 m/S 722 mmHg 72%
    18:00 +8°C° 0 mm 1 m/S 723 mmHg 79%
    19:00 +7°C° 0 mm 1 m/S 723 mmHg 85%
    20:00 +6°C° 0 mm 1 m/S 723 mmHg 86%
    21:00 +6°C° 0 mm 1 m/S 723 mmHg 86%
    22:00 +5°C° 0 mm 1 m/S 724 mmHg 86%
    23:00 +5°C° 0 mm 1 m/S 724 mmHg 85%

    Morgen, 20 Februar, Mittwoch

    Zeit Temperatur Niederschläge Wind Luftdruck Luftfeuchtigkeit
    00:00 +4°C° 0 mm 1 m/S 724 mmHg 84%
    01:00 +4°C° 0 mm 1 m/S 724 mmHg 84%
    02:00 +4°C° 0 mm 1 m/S 724 mmHg 83%
    03:00 +4°C° 0 mm 1 m/S 723 mmHg 83%
    04:00 +3°C° 0 mm 1 m/S 723 mmHg 83%
    05:00 +3°C° 0 mm 1 m/S 723 mmHg 83%
    06:00 +3°C° 0 mm 1 m/S 723 mmHg 83%
    07:00 +3°C° 0 mm 1 m/S 724 mmHg 83%
    08:00 +4°C° 0 mm 0 m/S 724 mmHg 77%
    09:00 +5°C° 0 mm 0 m/S 724 mmHg 72%
    10:00 +7°C° 0 mm 0 m/S 725 mmHg 67%
    11:00 +9°C° 0 mm 0 m/S 725 mmHg 62%
    12:00 +10°C° 0 mm 0 m/S 725 mmHg 58%
    13:00 +12°C° 0 mm 0 m/S 725 mmHg 54%
    14:00 +12°C° 0 mm 0 m/S 725 mmHg 55%
    15:00 +12°C° 0 mm 0 m/S 725 mmHg 55%
    16:00 +12°C° 0 mm 0 m/S 725 mmHg 56%
    17:00 +10°C° 0 mm 0 m/S 725 mmHg 62%
    18:00 +8°C° 0 mm 0 m/S 725 mmHg 69%
    19:00 +7°C° 0 mm 1 m/S 725 mmHg 76%
    20:00 +7°C° 0 mm 1 m/S 726 mmHg 77%
    21:00 +6°C° 0 mm 1 m/S 726 mmHg 78%
    22:00 +5°C° 0 mm 1 m/S 726 mmHg 80%
    23:00 +5°C° 0 mm 1 m/S 726 mmHg 79%

    übermorgen, 21 Februar, Donnerstag

    Zeit Temperatur Niederschläge Wind Luftdruck Luftfeuchtigkeit
    00:00 +5°C° 0 mm 1 m/S 726 mmHg 79%
    01:00 +4°C° 0 mm 1 m/S 726 mmHg 78%
    02:00 +4°C° 0 mm 1 m/S 727 mmHg 78%
    03:00 +4°C° 0 mm 1 m/S 727 mmHg 78%
    04:00 +4°C° 0 mm 1 m/S 727 mmHg 77%
    05:00 +4°C° 0 mm 1 m/S 727 mmHg 77%
    06:00 +3°C° 0 mm 1 m/S 727 mmHg 77%
    07:00 +3°C° 0 mm 1 m/S 727 mmHg 76%
    08:00 +5°C° 0 mm 1 m/S 727 mmHg 71%
    09:00 +6°C° 0 mm 0 m/S 728 mmHg 65%
    10:00 +8°C° 0 mm 0 m/S 728 mmHg 59%
    11:00 +9°C° 0 mm 0 m/S 728 mmHg 56%
    12:00 +11°C° 0 mm 0 m/S 728 mmHg 53%
    13:00 +14°C° 0 mm 1 m/S 728 mmHg 49%
    14:00 +13°C° 0 mm 1 m/S 728 mmHg 50%
    15:00 +13°C° 0 mm 1 m/S 728 mmHg 52%
    16:00 +13°C° 0 mm 1 m/S 728 mmHg 53%
    17:00 +12°C° 0 mm 1 m/S 728 mmHg 59%
    18:00 +10°C° 0 mm 1 m/S 729 mmHg 66%
    19:00 +8°C° 0 mm 1 m/S 729 mmHg 73%
    20:00 +7°C° 0 mm 1 m/S 729 mmHg 74%
    21:00 +7°C° 0 mm 1 m/S 730 mmHg 75%
    22:00 +6°C° 0 mm 1 m/S 730 mmHg 77%
    23:00 +6°C° 0 mm 1 m/S 730 mmHg 77%

    22 Februar, Freitag

    Zeit Temperatur Niederschläge Wind Luftdruck Luftfeuchtigkeit
    00:00 +6°C° 0 mm 1 m/S 731 mmHg 78%
    01:00 +5°C° 0 mm 1 m/S 731 mmHg 79%
    02:00 +5°C° 0 mm 1 m/S 731 mmHg 79%
    03:00 +5°C° 0 mm 1 m/S 731 mmHg 80%
    04:00 +3°C° 0 mm 0 m/S 731 mmHg 81%
    05:00 +4°C° 0 mm 1 m/S 731 mmHg 82%
    06:00 +4°C° 0 mm 1 m/S 731 mmHg 82%
    07:00 +4°C° 0 mm 1 m/S 731 mmHg 83%
    08:00 +5°C° 0 mm 1 m/S 731 mmHg 78%
    09:00 +7°C° 0 mm 1 m/S 731 mmHg 72%
    10:00 +9°C° 0 mm 1 m/S 731 mmHg 67%
    11:00 +10°C° 0 mm 1 m/S 731 mmHg 64%
    12:00 +12°C° 0 mm 1 m/S 731 mmHg 62%
    13:00 +13°C° 0 mm 2 m/S 731 mmHg 60%
    14:00 +13°C° 0 mm 2 m/S 731 mmHg 61%
    15:00 +13°C° 0 mm 2 m/S 730 mmHg 61%
    16:00 +12°C° 0 mm 3 m/S 730 mmHg 62%
    17:00 +10°C° 0 mm 2 m/S 731 mmHg 70%
    18:00 +8°C° 0 mm 2 m/S 731 mmHg 77%
    19:00 +7°C° 0 mm 2 m/S 731 mmHg 85%
    20:00 +6°C° 0 mm 2 m/S 731 mmHg 88%
    21:00 +5°C° 0 mm 2 m/S 731 mmHg 90%
    22:00 +6°C° 0 mm 1 m/S 731 mmHg 93%
    23:00 +6°C° 0 mm 1 m/S 731 mmHg 93%

    23 Februar, Samstag

    Zeit Temperatur Niederschläge Wind Luftdruck Luftfeuchtigkeit
    00:00 +4°C° 0 mm 2 m/S 731 mmHg 93%
    01:00 +4°C° 0 mm 2 m/S 731 mmHg 93%
    02:00 +5°C° 0 mm 1 m/S 730 mmHg 93%
    03:00 +4°C° 0 mm 1 m/S 730 mmHg 93%
    04:00 +4°C° 0 mm 1 m/S 730 mmHg 93%
    05:00 +4°C° 0 mm 1 m/S 730 mmHg 93%
    06:00 +3°C° 0 mm 1 m/S 730 mmHg 92%
    07:00 +3°C° 0 mm 1 m/S 730 mmHg 92%
    08:00 +5°C° 0 mm 1 m/S 730 mmHg 87%
    09:00 +6°C° 0 mm 1 m/S 730 mmHg 81%
    10:00 +7°C° 0 mm 1 m/S 730 mmHg 75%
    11:00 +8°C° 0 mm 2 m/S 730 mmHg 71%
    12:00 +9°C° 0 mm 2 m/S 729 mmHg 66%
    13:00 +12°C° 0 mm 2 m/S 729 mmHg 62%
    14:00 +12°C° 0 mm 2 m/S 729 mmHg 62%
    15:00 +12°C° 0 mm 2 m/S 729 mmHg 63%
    16:00 +12°C° 0 mm 2 m/S 729 mmHg 63%
    17:00 +9°C° 0 mm 2 m/S 729 mmHg 72%
    18:00 +8°C° 0 mm 2 m/S 729 mmHg 80%
    19:00 +7°C° 0 mm 1 m/S 729 mmHg 89%
    20:00 +6°C° 0 mm 1 m/S 729 mmHg 90%
    21:00 +6°C° 0 mm 1 m/S 729 mmHg 91%
    22:00 +5°C° 0 mm 1 m/S 729 mmHg 92%
    23:00 +5°C° 0 mm 1 m/S 729 mmHg 91%

    24 Februar, Sonntag

    Zeit Temperatur Niederschläge Wind Luftdruck Luftfeuchtigkeit
    00:00 +5°C° 0 mm 1 m/S 729 mmHg 91%
    01:00 +5°C° 0 mm 1 m/S 729 mmHg 90%
    02:00 +4°C° 0 mm 1 m/S 729 mmHg 90%
    03:00 +4°C° 0 mm 1 m/S 729 mmHg 91%
    04:00 +4°C° 0 mm 1 m/S 728 mmHg 92%
    05:00 +3°C° 0 mm 1 m/S 728 mmHg 91%
    06:00 +3°C° 0 mm 1 m/S 729 mmHg 91%
    07:00 +2°C° 0 mm 1 m/S 729 mmHg 91%
    08:00 +4°C° 0 mm 1 m/S 729 mmHg 84%
    09:00 +5°C° 0 mm 1 m/S 729 mmHg 77%
    10:00 +7°C° 0 mm 1 m/S 729 mmHg 70%
    11:00 +8°C° 0 mm 2 m/S 729 mmHg 65%
    12:00 +9°C° 0 mm 2 m/S 729 mmHg 59%
    13:00 +11°C° 0 mm 3 m/S 729 mmHg 54%
    14:00 +11°C° 0 mm 3 m/S 729 mmHg 54%
    15:00 +11°C° 0 mm 3 m/S 729 mmHg 55%
    16:00 +12°C° 0 mm 3 m/S 729 mmHg 55%
    17:00 +10°C° 0 mm 3 m/S 729 mmHg 62%
    18:00 +8°C° 0 mm 2 m/S 729 mmHg 69%
    19:00 +6°C° 0 mm 2 m/S 729 mmHg 76%
    20:00 +6°C° 0 mm 1 m/S 729 mmHg 79%
    21:00 +5°C° 0 mm 1 m/S 730 mmHg 81%
    22:00 +4°C° 0 mm 1 m/S 730 mmHg 84%
    23:00 +4°C° 0 mm 1 m/S 730 mmHg 85%
    Mehr zeigen